Location: Izdebno
(52.6670°N, 16.2170°E)
Time: 02:58:48
(UTC+02:00)

Transit 2A - Pass Details

Date: 02 March 2024
Orbit: 596 x 956 km, 66.7° (Epoch: 21 April)

Event Time Altitude Azimuth Distance (km) Brightness Sun altitude
Rises 20:45:16 0° 270° (W) 2,842 9.9 -28.5°
Reaches altitude 10° 20:47:58 10° 288° (WNW) 1,953 9.0 -28.9°
Maximum altitude 20:51:15 20° 337° (NNW) 1,430 7.9 -29.3°
Enters shadow 20:53:18 15° 11° (N) 1,686 8.0 -29.6°
Drops below altitude 10° 20:54:39 10° 25° (NNE) 2,035 - -29.7°
Sets 20:57:33 0° 43° (NE) 3,001 - -30.1°
